User: anonymous   Login
Location: Unspecified
(0.0000°N, 0.0000°E)
Time: 09:19:50
(UTC+00:00)
Language:

Nadezhda 1 - Orbit

View from above orbital plane
View from above orbital plane
View from above satellite
View from above satellite

Ground track
Ground track

The orbit data is extracted from the following two-line orbital elements,

1 20103U 89050A   17086.93134622 +.00000044 +00000-0 +30311-4 0  9990
2 20103 082.9573 268.7552 0038350 140.9496 326.1330 13.74543933390696
Epoch (UTC): 27 March 2017 22:21:08
Eccentricity: 0.0038350
inclination: 82.9573°
perigee height: 955 km
apogee height: 1011 km
right ascension of ascending node: 268.7552°
argument of perigee: 140.9496°
revolutions per day: 13.74543933
mean anomaly at epoch: 326.1330°
orbit number at epoch: 39069

The dashed part of the orbit path shows where the satellite is in the earth's shadow,  

DLR